TimePDT,TemperatureF,Dew PointF,Humidity,Sea Level PressureIn,VisibilityMPH,Wind Direction,Wind SpeedMPH,Gust SpeedMPH,PrecipitationIn,Events,Conditions,WindDirDegrees,DateUTC
12:15 AM,44.6,44.6,100,29.78,10.0,Calm,Calm,-,N/A,Rain,Light Rain,0,2013-05-22 07:15:00
12:35 AM,44.6,44.6,100,29.78,7.0,Calm,Calm,-,N/A,Rain,Light Rain,0,2013-05-22 07:35:00
12:55 AM,44.6,44.6,100,29.78,5.0,WSW,3.5,-,N/A,Rain,Heavy Rain,250,2013-05-22 07:55:00
1:15 AM,44.6,44.6,100,29.79,7.0,Calm,Calm,-,N/A,Rain,Rain,0,2013-05-22 08:15:00
1:35 AM,44.6,44.6,100,29.77,4.0,Calm,Calm,-,N/A,Rain,Heavy Rain,0,2013-05-22 08:35:00
1:55 AM,44.6,44.6,100,29.78,10.0,South,5.8,-,N/A,Rain,Light Rain,170,2013-05-22 08:55:00
2:15 AM,44.6,44.6,100,29.79,7.0,Calm,Calm,-,N/A,Rain,Rain,0,2013-05-22 09:15:00
2:35 AM,44.6,44.6,100,29.78,4.0,Calm,Calm,-,N/A,Rain,Rain,0,2013-05-22 09:35:00
2:55 AM,44.6,44.6,100,29.78,3.0,Calm,Calm,-,N/A,Rain,Heavy Rain,0,2013-05-22 09:55:00
3:15 AM,44.6,44.6,100,29.77,7.0,Calm,Calm,-,N/A,Rain,Light Rain,0,2013-05-22 10:15:00
3:35 AM,44.6,44.6,100,29.76,10.0,Calm,Calm,-,N/A,Rain,Light Rain,0,2013-05-22 10:35:00
3:55 AM,44.6,44.6,100,29.76,7.0,Calm,Calm,-,N/A,Rain,Rain,0,2013-05-22 10:55:00
4:15 AM,44.6,44.6,100,29.78,10.0,Calm,Calm,-,N/A,Rain,Light Rain,0,2013-05-22 11:15:00
4:35 AM,44.6,44.6,100,29.79,7.0,SSW,3.5,-,N/A,Rain,Rain,210,2013-05-22 11:35:00
4:55 AM,44.6,44.6,100,29.79,7.0,SSW,4.6,-,N/A,Rain,Rain,200,2013-05-22 11:55:00
5:15 AM,42.8,42.8,100,29.78,7.0,Calm,Calm,-,N/A,Rain,Rain,0,2013-05-22 12:15:00
5:35 AM,42.8,42.8,100,29.79,5.0,SSW,3.5,-,N/A,Rain,Rain,200,2013-05-22 12:35:00
5:55 AM,42.8,42.8,100,29.81,5.0,SW,3.5,-,N/A,Rain,Heavy Rain,220,2013-05-22 12:55:00
6:15 AM,42.8,42.8,100,29.80,5.0,Calm,Calm,-,N/A,Rain,Rain,0,2013-05-22 13:15:00
6:35 AM,41.0,41.0,100,29.82,4.0,SW,4.6,-,N/A,Rain,Rain,230,2013-05-22 13:35:00
6:55 AM,39.2,39.2,100,29.82,10.0,Calm,Calm,-,N/A,Rain,Light Rain,0,2013-05-22 13:55:00
7:15 AM,41.0,41.0,100,29.83,10.0,Calm,Calm,-,N/A,Rain,Light Rain,0,2013-05-22 14:15:00
7:35 AM,41.0,41.0,100,29.84,7.0,South,9.2,-,N/A,Rain,Light Rain,170,2013-05-22 14:35:00
7:55 AM,39.2,39.2,100,29.84,7.0,South,6.9,-,N/A,Rain,Rain,190,2013-05-22 14:55:00
8:15 AM,39.2,39.2,100,29.85,7.0,South,9.2,-,N/A,Rain,Rain,190,2013-05-22 15:15:00
8:35 AM,39.2,39.2,100,29.85,10.0,South,10.4,-,N/A,Rain,Rain,170,2013-05-22 15:35:00
8:55 AM,39.2,39.2,100,29.87,10.0,South,13.8,17.3,N/A,,Drizzle,170,2013-05-22 15:55:00
9:15 AM,39.2,39.2,100,29.87,7.0,South,8.1,-,N/A,,Light Drizzle,180,2013-05-22 16:15:00
9:35 AM,39.2,39.2,100,29.86,5.0,South,8.1,-,N/A,,Drizzle,180,2013-05-22 16:35:00
9:55 AM,39.2,39.2,100,29.88,4.0,South,5.8,-,N/A,Rain,Rain,190,2013-05-22 16:55:00
10:15 AM,41.0,41.0,100,29.88,4.0,WSW,5.8,-,N/A,Rain,Light Rain,250,2013-05-22 17:15:00
10:35 AM,41.0,41.0,100,29.88,4.0,Calm,Calm,-,N/A,,Drizzle,0,2013-05-22 17:35:00
10:55 AM,41.0,41.0,100,29.90,5.0,South,4.6,-,N/A,,Drizzle,190,2013-05-22 17:55:00
11:15 AM,41.0,41.0,100,29.90,5.0,SSW,5.8,-,N/A,,Drizzle,200,2013-05-22 18:15:00
11:35 AM,39.2,39.2,100,29.90,5.0,SSW,8.1,-,N/A,Rain,Rain,210,2013-05-22 18:35:00
11:55 AM,39.2,39.2,100,29.91,7.0,SW,4.6,-,N/A,Rain,Light Rain,220,2013-05-22 18:55:00
12:15 PM,39.2,39.2,100,29.91,7.0,SW,3.5,-,N/A,Rain,Light Rain,220,2013-05-22 19:15:00
12:35 PM,41.0,41.0,100,29.92,7.0,SW,5.8,-,N/A,Rain,Light Rain,220,2013-05-22 19:35:00
12:55 PM,41.0,41.0,100,29.92,10.0,SSW,6.9,-,N/A,Rain,Light Rain,210,2013-05-22 19:55:00
1:15 PM,41.0,41.0,100,29.92,10.0,SW,3.5,-,N/A,,Light Drizzle,220,2013-05-22 20:15:00
1:35 PM,41.0,41.0,100,29.92,10.0,South,6.9,-,N/A,,Light Drizzle,190,2013-05-22 20:35:00
1:55 PM,41.0,41.0,100,29.94,10.0,South,6.9,-,N/A,Rain,Rain,190,2013-05-22 20:55:00
2:15 PM,41.0,41.0,100,29.94,10.0,Calm,Calm,-,N/A,,Drizzle,0,2013-05-22 21:15:00
2:35 PM,41.0,41.0,100,29.94,7.0,NNE,6.9,-,N/A,Rain,Light Rain,30,2013-05-22 21:35:00
2:55 PM,39.2,39.2,100,29.96,7.0,NE,4.6,-,N/A,Rain,Light Rain,50,2013-05-22 21:55:00
3:15 PM,39.2,39.2,100,29.95,10.0,NNE,6.9,-,N/A,Rain,Light Rain,30,2013-05-22 22:15:00
3:35 PM,39.2,39.2,100,29.96,10.0,NNE,4.6,-,N/A,,Overcast,20,2013-05-22 22:35:00
3:55 PM,39.2,39.2,100,29.96,10.0,NNE,6.9,-,N/A,,Overcast,20,2013-05-22 22:55:00
4:15 PM,39.2,39.2,100,29.98,10.0,North,6.9,-,N/A,Rain,Light Rain,10,2013-05-22 23:15:00
4:35 PM,37.4,37.4,100,29.96,10.0,NNE,6.9,-,N/A,Rain,Rain,20,2013-05-22 23:35:00
4:55 PM,37.4,37.4,100,29.97,10.0,NNE,6.9,-,N/A,Rain,Light Rain,20,2013-05-22 23:55:00
5:15 PM,37.4,37.4,100,29.99,10.0,NNE,6.9,-,N/A,Rain,Light Rain,30,2013-05-23 00:15:00
5:35 PM,37.4,37.4,100,29.97,10.0,NNE,5.8,-,N/A,Rain,Light Rain,20,2013-05-23 00:35:00
5:55 PM,37.4,37.4,100,30.00,10.0,NNE,6.9,-,N/A,Rain,Light Rain,20,2013-05-23 00:55:00
6:15 PM,37.4,37.4,100,29.99,10.0,NNE,6.9,-,N/A,Rain,Light Rain,20,2013-05-23 01:15:00
6:35 PM,37.4,37.4,100,30.01,10.0,NNE,4.6,-,N/A,Rain,Light Rain,30,2013-05-23 01:35:00
6:55 PM,37.4,37.4,100,30.00,10.0,NNE,5.8,-,N/A,Rain,Rain,30,2013-05-23 01:55:00
7:15 PM,37.4,37.4,100,29.99,10.0,NNE,8.1,-,N/A,Rain,Light Rain,20,2013-05-23 02:15:00
7:35 PM,37.4,37.4,100,30.00,10.0,NNE,5.8,-,N/A,,Overcast,30,2013-05-23 02:35:00
7:55 PM,37.4,37.4,100,30.01,10.0,NNE,6.9,-,N/A,,Overcast,30,2013-05-23 02:55:00
8:15 PM,37.4,37.4,100,30.00,10.0,NNE,5.8,-,N/A,,Overcast,30,2013-05-23 03:15:00
8:35 PM,37.4,37.4,100,30.00,10.0,NNE,6.9,-,N/A,,Overcast,20,2013-05-23 03:35:00
8:55 PM,37.4,37.4,100,30.02,10.0,NE,5.8,-,N/A,,Overcast,40,2013-05-23 03:55:00
9:15 PM,37.4,37.4,100,30.03,10.0,NE,6.9,-,N/A,,Mostly Cloudy,40,2013-05-23 04:15:00
9:35 PM,37.4,37.4,100,30.02,10.0,NE,5.8,-,N/A,,Overcast,40,2013-05-23 04:35:00
9:55 PM,37.4,37.4,100,30.02,10.0,NNE,8.1,-,N/A,,Overcast,30,2013-05-23 04:55:00
10:15 PM,35.6,35.6,100,30.02,10.0,NE,6.9,-,N/A,,Overcast,40,2013-05-23 05:15:00
10:35 PM,35.6,35.6,100,30.03,10.0,NNE,5.8,-,N/A,,Overcast,20,2013-05-23 05:35:00
10:55 PM,35.6,35.6,100,30.03,10.0,NNE,4.6,-,N/A,,Scattered Clouds,20,2013-05-23 05:55:00
11:15 PM,35.6,35.6,100,30.03,10.0,NNE,5.8,-,N/A,,Clear,20,2013-05-23 06:15:00
11:35 PM,35.6,35.6,100,30.03,10.0,Calm,Calm,-,N/A,,Clear,0,2013-05-23 06:35:00
11:55 PM,35.6,35.6,100,30.02,2.5,Calm,Calm,-,N/A,,Scattered Clouds,0,2013-05-23 06:55:00